IRIDIUM 33 DEB, 34077

Orbit data source: Space-Track

IRIDIUM 33 DEB, 34077 is space debris in LEO originally from a launch on Sun, 14 Sep 1997 UTC launched from the Tyuratam Missile And Space Complex (TTMTR). The debris from Iridium 33, an American commercial communications satellite, has been tracked extensively since its accidental collision with the defunct Russian satellite Cosmos 2251 in 2009. This event, occurring at high speed in low Earth orbit (LEO), generated thousands of pieces of space debris, significantly increasing the risk of further collisions. The Iridium 33 debris cloud has impacted space traffic management and orbital debris mitigation strategies, making it a subject of ongoing study in space situational awareness.

Loading next visibility...
Identifier
34077, 1997-051CL
Orbit
LEO
Country
Flag of USUS
Related business
Manufacturer
Unknown
Mission
Spacecraft
Bus & Motor
Unknown
Mass
Unknown
Launch date (UTC)
1997-09-14 (29 years ago)
Launch vehicle
Unknown
Launch site
Tyuratam Missile And Space Complex (TTMTR)
Object type
Payload
Rocket body
Debris
Shape & HBR
Unknown shape, 0.2 m
Radar Cross Section
Small (<0.1 m²)

Expand to show TLE details & history
Last TLE update: 16 hours ago

TLE from 16 hours ago
0 IRIDIUM 33 DEB
1 34077U 97051CL  26121.07560382  .00005229  00000-0  92107-3 0  9996
2 34077  86.3873 350.0077 0006811 273.9260 209.3933 14.67396439903749
Epoch: 2026-05-01T01:48Z
TLE epoch observation values (Epoch: 2026-05-01T01:48:52.170Z)
Latitude
56.64505°
Longitude
-81.69708°
Altitude
683.152 km
Speed
7.518 km/s
True Right ascension
10h 58m 08s
True Declination
56° 29' 07"
Sunlit
Object was in daylight at epoch
Visualization orbit readout
Latitude
Unknown
Longitude
Unknown
Altitude
Unknown
Speed
Unknown
Apparent Right ascension
Unknown
Apparent Declination
Unknown
Sunlit
N/A
Visualization observer readout
Local Sidereal Time
01:15:25
Azimuth
Unknown
Elevation
Unknown
Doppler factor
Unknown
Orbital elements
Apogee altitude
671.108 km
Perigee altitude
661.512 km
Semi-major axis
7,044.447 km
Eccentricity
0.00068
Inclination
86.3873°
RAAN
350.0077°
Arg. of periapsis
273.926°
True anomaly
209.35502°
Mean anomaly
209.3933°
Eccentric anomaly
209.37416°
Mean motion
3.6709 °/min
Orbital period
98.07 mins
BSTAR
0.00092107
Loading maneuver chart data...
Computing Atmospheric mass density...
Loading historical data...
Loading historical data...
Loading historical data...
Loading historical data...
Loading historical data...
Loading historical data...
Loading historical data...

Documentation

Showing up to 5 results
|